Glendale Luke AFB, AZ

11:17 AM MST on May 24, 2017 (GMT -0700)
Luke Air Force Base

Weather History for KLUF - September, 2012

Change the Weather History Date:

Sunday, September 2, 2012

  Actual Average Record
Temperature  
Mean Temperature 94 °F -  
Max Temperature 105 °F 103 °F 114 °F (1948)
Min Temperature 84 °F 72 °F 58 °F (1953)
Cooling Degree Days 30    
Growing Degree Days 44 (Base 50)    
Moisture  
Dew Point 63 °F    
Average Humidity 36    
Maximum Humidity 54    
Minimum Humidity 23    
Precipitation  
Precipitation 0.00 in - - ()
Sea Level Pressure  
Sea Level Pressure 29.75 in    
Wind  
Wind Speed 6 mph (WSW)    
Max Wind Speed 17 mph    
Max Gust Speed 17 mph    
Visibility 10 miles    
Events      
Averages and records for this station are not official NWS values.
T = Trace of Precipitation, MM = Missing Value Source: NWS Daily Summary

Daily Weather History Graph

Daily Weather History Graph

Search for Another Location

Airport or City:

Trip Planner

Search our weather history database for the weather conditions in past years. The results will help you decide how hot, cold, wet, or windy it might be!

Date:

Astronomy

Sep. 02, 2012 Rise Set
Actual Time 6:04 AM MST 6:52 PM MST
Civil Twilight 5:39 AM MST 7:18 PM MST
Nautical Twilight 5:09 AM MST 7:47 PM MST
Astronomical Twilight 4:38 AM MST 8:18 PM MST
Moon 7:53 PM MST (9/2) 8:06 AM MST (9/2)
Length of Visible Light 13h 38m
Length of Day
12h 48m
Waning Gibbous, 95% of the Moon is Illuminated
Sep 2
Waning Gibbous
Sep 8
Last Quarter
Sep 15
New
Sep 22
First Quarter
Sep 29
Full

Hourly Weather History & Observations

Time (MST) Temp. Heat Index Dew Point Humidity Pressure Visibility Wind Dir Wind Speed Gust Speed Precip Events Conditions
12:55 AM 87.8 °F 90.0 °F 66.0 °F 48% 29.75 in 10.0 mi NNW 8.1 mph - N/A   Clear
1:55 AM 87.3 °F 89.8 °F 66.4 °F 50% 29.75 in 10.0 mi NNW 8.1 mph - N/A   Clear
2:55 AM 86.9 °F 89.3 °F 66.0 °F 50% 29.75 in 10.0 mi Calm Calm - N/A   Clear
3:55 AM 86.4 °F 89.0 °F 66.9 °F 52% 29.74 in 10.0 mi NW 5.8 mph - N/A   Mostly Cloudy
4:55 AM 85.3 °F 87.6 °F 66.6 °F 53% 29.75 in 10.0 mi North 3.5 mph - N/A   Mostly Cloudy
5:55 AM 84.9 °F 87.4 °F 66.6 °F 54% 29.78 in 10.0 mi NNW 3.5 mph - N/A   Scattered Clouds
6:55 AM 87.1 °F 89.5 °F 66.4 °F 50% 29.79 in 10.0 mi Calm Calm - N/A   Overcast
7:55 AM 89.2 °F 90.2 °F 63.7 °F 42% 29.81 in 10.0 mi Calm Calm - N/A   Partly Cloudy
8:55 AM 93.7 °F 94.5 °F 61.9 °F 35% 29.82 in 10.0 mi Calm Calm - N/A   Partly Cloudy
9:55 AM 97.0 °F 98.8 °F 63.1 °F 33% 29.81 in 10.0 mi Calm Calm - N/A   Clear
10:55 AM 98.2 °F 99.9 °F 62.8 °F 31% 29.80 in 10.0 mi Calm Calm - N/A   Clear
11:55 AM 101.8 °F 104.9 °F 63.7 °F 29% 29.78 in 10.0 mi Variable 4.6 mph - N/A   Clear
12:55 PM 103.1 °F 105.8 °F 62.6 °F 27% 29.77 in 10.0 mi South 9.2 mph - N/A   Clear
1:55 PM 104.5 °F 107.6 °F 62.8 °F 26% 29.75 in 10.0 mi SSW 17.3 mph - N/A   Clear
2:55 PM 105.3 °F 107.4 °F 61.9 °F 24% 29.71 in 10.0 mi SSW 16.1 mph - N/A   Clear
3:55 PM 104.9 °F 106.8 °F 60.8 °F 24% 29.69 in 10.0 mi SSW 9.2 mph 17.3 mph N/A   Clear
4:55 PM 105.6 °F 107.2 °F 60.6 °F 23% 29.68 in 10.0 mi SW 9.2 mph - N/A   Clear
5:55 PM 104.9 °F 106.1 °F 59.5 °F 23% 29.67 in 10.0 mi SSW 5.8 mph - N/A   Clear
6:55 PM 102.2 °F 103.0 °F 59.7 °F 25% 29.68 in 10.0 mi SSW 10.4 mph - N/A   Clear
7:55 PM 100.0 °F 100.2 °F 59.0 °F 26% 29.71 in 10.0 mi SSW 10.4 mph - N/A   Clear
8:55 PM 97.7 °F 97.6 °F 59.0 °F 28% 29.73 in 10.0 mi SW 5.8 mph - N/A   Clear
9:55 PM 94.6 °F 94.3 °F 60.1 °F 31% 29.77 in 10.0 mi NE 8.1 mph - N/A   Clear
10:55 PM 95.4 °F 94.9 °F 59.5 °F 30% 29.79 in 10.0 mi WSW 12.7 mph - N/A   Partly Cloudy
11:55 PM 90.9 °F 91.6 °F 62.4 °F 39% 29.78 in 10.0 mi WSW 5.8 mph - N/A   Clear